SL-14 DEB, 45293

Orbit data source: Space-Track

SL-14 DEB, 45293 is space debris in LEO originally from a launch on Thu, 15 Aug 1991 UTC launched from the Plesetsk Missile And Space Complex (PKMTR). Debris objects in space refer to the collection of defunct objects orbiting the Earth. Examples of debris include non-operational satellites, rocket bodies, and fragments generated from explosions, collisions, or faulty payload assembly.

Loading next visibility...
SL-14 DEB details
Identifier
45293, 1991-056AF
Orbit
LEO
Last TLE update15 hours ago
Origin
Flag of CISRosgidromet (CIS)
ManufacturerUnknown
MissionSpacecraft
Bus & MotorUnknown
MassUnknown
Launch date (UTC)
1991-08-15 (33 years ago)
Launch vehicleUnknown
Launch site
Plesetsk Missile And Space Complex (PKMTR)
Object type
Payload
Rocket body
Debris
Shape & HBRUnknown
Radar Cross SectionSmall (<0.1 m²)

Expand to show TLE details & history

TLE from 15 hours ago
0 SL-14 DEB
1 45293U 91056AF  25023.95188083  .00038246  00000-0  20248-1 0  9998
2 45293  82.5380  14.9479 0163688 198.7266 160.7843 14.06849656246613
Epoch: 2025-01-23T22:50Z
Definitive object data (Epoch: 2025-01-23T22:50:42.503Z)
Latitude-0.00001°
Longitude-91.25123°
Altitude985.37 km
Speed7.302 km/s
True Right ascension00h 59m 47s
True Declination0° 00' 00"
Sunlit
Object was in daylight at TLE epoch
Visualization TLE readout
Latitude-6.80339°
Longitude89.13859°
Altitude757.298 km
Speed7.535 km/s
Apparent Right ascension10h 30m 30s
Apparent Declination-55° 55' 32"
Sunlit
Object is in daylight
Visualization observer readout
Local Sidereal Time14:39:22
Azimuth211.689° SW
Elevation-19.34°
Doppler factor1
Orbital elements
Apogee altitude985.891 km
Perigee altitude748.693 km
Semi-major axis7,245.429 km
Eccentricity0.0163688
Inclination82.538°
RAAN14.9479°
Arg. of periapsis198.7266°
True anomaly161.38993°
Mean anomaly160.7843°
Eccentric anomaly161.08827°
Mean motion3.51922 °/min
BSTAR0.020248
Orbital period102.3 mins
Loading maneuver chart data...
Loading historical data...
Loading historical data...
Loading historical data...
Loading historical data...
Loading historical data...
Loading historical data...
Loading historical data...

SL-14 DEB Visibility forecast

Observer location: undefined°, undefined

Span
Click to sort rows by Start time (UTC) header in descending order
Start Az.
Max El. time (UTC)
Max El. Az.
Max El.
End time (UTC)
End Az.
9 mins2025-01-24 22:51:21.849Z138.098° SSE2025-01-24 22:56:21.849Z83.87° E23.366°2025-01-24 23:00:21.849Z38.07° NE
10 mins2025-01-25 00:34:21.849Z213.948° SW2025-01-25 00:39:21.849Z291.171° WNW36.172°2025-01-25 00:44:21.849Z353.588° N
9 mins2025-01-25 11:17:21.849Z346.463° N2025-01-25 11:21:21.849Z294.158° NW42.889°2025-01-25 11:26:21.849Z183.203° SSW
|